TimeEST,TemperatureF,Dew PointF,Humidity,Sea Level PressureIn,VisibilityMPH,Wind Direction,Wind SpeedMPH,Gust SpeedMPH,PrecipitationIn,Events,Conditions,WindDirDegrees,DateUTC
12:53 AM,36.0,25.0,64,30.20,10.0,NW,4.6,-,N/A,,Mostly Cloudy,320,2013-03-08 05:53:00
1:53 AM,37.0,23.0,57,30.19,10.0,NW,15.0,20.7,N/A,,Clear,310,2013-03-08 06:53:00
2:53 AM,37.0,23.0,57,30.18,10.0,NW,15.0,24.2,N/A,,Clear,310,2013-03-08 07:53:00
3:53 AM,37.0,24.1,59,30.18,10.0,WNW,13.8,-,N/A,,Mostly Cloudy,300,2013-03-08 08:53:00
4:53 AM,37.0,23.0,57,30.19,10.0,NW,17.3,24.2,N/A,,Overcast,310,2013-03-08 09:53:00
5:53 AM,37.0,23.0,57,30.20,10.0,NW,13.8,-,N/A,,Mostly Cloudy,310,2013-03-08 10:53:00
6:53 AM,37.0,21.9,54,30.22,10.0,NNW,13.8,-,N/A,,Overcast,330,2013-03-08 11:53:00
7:53 AM,37.0,23.0,57,30.23,10.0,NW,19.6,29.9,N/A,,Overcast,320,2013-03-08 12:53:00
8:53 AM,37.9,21.9,53,30.24,10.0,NNW,25.3,36.8,N/A,,Overcast,330,2013-03-08 13:53:00
9:53 AM,39.0,21.9,50,30.25,10.0,NNW,19.6,26.5,N/A,,Overcast,330,2013-03-08 14:53:00
10:53 AM,43.0,23.0,45,30.26,10.0,NNW,17.3,29.9,N/A,,Mostly Cloudy,330,2013-03-08 15:53:00
11:53 AM,42.1,21.9,45,30.25,10.0,North,26.5,34.5,N/A,,Mostly Cloudy,350,2013-03-08 16:53:00
12:53 PM,45.0,24.1,44,30.22,10.0,NNW,25.3,36.8,N/A,,Clear,330,2013-03-08 17:53:00
1:53 PM,45.0,25.0,46,30.21,10.0,NW,21.9,32.2,N/A,,Clear,310,2013-03-08 18:53:00
2:53 PM,46.0,25.0,44,30.21,10.0,NW,21.9,28.8,N/A,,Clear,310,2013-03-08 19:53:00
3:53 PM,46.9,25.0,42,30.22,10.0,NW,19.6,25.3,N/A,,Clear,310,2013-03-08 20:53:00
4:53 PM,46.9,25.0,42,30.25,10.0,NNW,16.1,26.5,N/A,,Mostly Cloudy,340,2013-03-08 21:53:00
5:53 PM,46.0,25.0,44,30.27,10.0,NNW,16.1,25.3,N/A,,Overcast,330,2013-03-08 22:53:00
6:53 PM,44.1,25.0,47,30.28,10.0,NW,11.5,-,N/A,,Overcast,310,2013-03-08 23:53:00
7:53 PM,42.1,25.0,51,30.30,10.0,NW,16.1,23.0,N/A,,Clear,310,2013-03-09 00:53:00
8:53 PM,39.9,25.0,55,30.32,10.0,NW,9.2,18.4,N/A,,Clear,310,2013-03-09 01:53:00
9:53 PM,39.9,25.0,55,30.32,10.0,NW,11.5,-,N/A,,Clear,320,2013-03-09 02:53:00
10:53 PM,39.0,24.1,55,30.31,10.0,NNW,5.8,-,N/A,,Clear,340,2013-03-09 03:53:00
11:53 PM,37.9,24.1,57,30.32,10.0,Variable,4.6,-,N/A,,Clear,0,2013-03-09 04:53:00